Flag for Germany Weather past 2 weeks in Radolfzell am Bodensee, Baden-Württemberg, Germany

Now
60 °F

Clear.


Feels Like: 60 °F
Forecast: 53 / 70 °F
Wind: 1 mph from Northeast

Location: Konstanz

Current Time: Sep 21, 2014 at 1:11:33 AM

Latest Report: Sep 21, 2014 at 12:00 AM


Visibility: 28 mi

Pressure: 30.03 "Hg

Humidity: 93%

Dew point: 58 °F

Location of Radolfzell am BodenseeLocation

Historic Weather in Radolfzell am Bodensee — Graph

°F

Radolfzell am Bodensee temperature yesterday

Maximum temperature yesterday: 72 °F (at 3:00 PM)
Minimum temperature yesterday: 61 °F (at 8:00 AM)
Average temperature yesterday: 64 °F

Past Weeks' High & Low Weather Summary

 TemperatureHumidityPressure
High79 °F (Sep 6, 5:00 PM)99% (Sep 7, 7:00 AM)30.15 "Hg (Sep 7, 7:00 AM)
Low49 °F (Sep 12, 7:00 AM)43% (Sep 6, 6:00 PM)29.80 "Hg (Sep 17, 6:00 PM)
Average63 °F83%29.98 "Hg
* Reported Midnight between Sep 5 and Sep 6 — Midnight between Sep 20 and Sep 21, Radolfzell am Bodensee, Weather by CustomWeather, © 2014

Note: Actual official high and low records may vary slightly from our data, if they occured in-between our weather recording intervals... More about our weather records

Advertising

Radolfzell am Bodensee weather history for previous 24 hours

 ConditionsComfort  
Time TempWeatherWind HumidityBarometerVisibility
12:00 AM
Sep 21
60 °FClear.1 mph93%30.03 "Hg28 mi
11:00 PM
Sep 20
62 °FPassing clouds.1 mph90%30.02 "Hg25 mi
10:00 PM62 °FClear.1 mph87%30.02 "Hg43 mi
9:00 PM63 °FPassing clouds.3 mph87%30.02 "Hg25 mi
8:00 PM64 °FPassing clouds.2 mph82%29.99 "Hg25 mi
3:00 PM72 °FPartly sunny.2 mph62%29.98 "Hg25 mi
2:00 PM70 °FOvercast.3 mph73%29.99 "Hg19 mi
1:00 PM70 °FOvercast.2 mph76%29.99 "Hg22 mi
12:00 PM69 °FOvercast.1 mph74%30.00 "Hg22 mi
11:00 AM67 °FPartly sunny.1 mph74%30.00 "Hg25 mi
10:00 AM65 °FPartly sunny.1 mph87%30.00 "Hg25 mi
9:00 AM62 °FOvercast.1 mph95%30.00 "Hg12 mi
8:00 AM61 °FLight rain. Overcast.2 mph96%30.00 "Hg7 mi
7:00 AM62 °FLow clouds.2 mph98%29.98 "Hg4 mi
6:00 AM62 °FLight rain. Low clouds.1 mph97%29.99 "Hg4 mi
5:00 AM62 °FLight rain. Passing clouds.2 mph97%29.99 "Hg3 mi
4:00 AM62 °FPassing clouds.1 mph97%29.99 "Hg4 mi
3:00 AM62 °FLight rain. Passing clouds.1 mph96%30.00 "Hg7 mi
2:00 AM63 °FLight rain. Passing clouds.2 mph97%29.99 "Hg5 mi
1:00 AM63 °FRain. Passing clouds.1 mph96%30.00 "Hg3 mi
Weather by CustomWeather, © 2014

See weather overviewHow to use our weather pages